FENGYUN 1C DEB, 37444

Orbit data source: Space-Track

FENGYUN 1C DEB, 37444 is space debris in SSO originally from a launch on Mon, 10 May 1999 UTC launched from the Taiyaun Space Center, China (TSC). Fengyun 1C debris stems from the Chinese weather satellite Fengyun-1C, which was intentionally destroyed by a Chinese anti-satellite missile in 2007. This event dramatically increased the amount of space debris, with thousands of trackable fragments posing hazards to satellites and human spaceflight. The Fengyun 1C debris cloud has become a focal point in discussions about space sustainability and the need for international regulations to prevent the creation of new debris.

Loading next visibility...
Identifier
37444, 1999-025EHN
Orbit
SSO
Country
Flag of CNCN / PRC
Related business
Manufacturer
Unknown
Mission
Spacecraft
Bus & Motor
Unknown
Mass
Unknown
Launch date (UTC)
1999-05-10 (27 years ago)
Launch vehicle
Unknown
Launch site
Taiyaun Space Center, China (TSC)
Object type
Payload
Rocket body
Debris
Shape & HBR
Unknown shape, 0.1 m
Radar Cross Section
Small (<0.1 m²)

Expand to show TLE details & history
Last TLE update: 3 days ago

TLE from 3 days ago
0 FENGYUN 1C DEB
1 37444U 99025EHN 25310.48642930  .00005676  00000-0  10566-2 0  9998
2 37444  99.0864  28.2900 0247444  97.1346 265.8048 14.47647882646264
Epoch: 2025-11-06T11:40Z
TLE epoch observation values (Epoch: 2025-11-06T11:40:27.491Z)
Latitude
0.00002°
Longitude
167.2314°
Altitude
753.478 km
Speed
7.469 km/s
True Right ascension
01h 53m 09s
True Declination
0° 00' 00"
Sunlit
Object was in full shadow at epoch
Visualization orbit readout
Latitude
Unknown
Longitude
Unknown
Altitude
Unknown
Speed
Unknown
Apparent Right ascension
Unknown
Apparent Declination
Unknown
Sunlit
N/A
Visualization observer readout
Local Sidereal Time
07:43:17
Azimuth
Unknown
Elevation
Unknown
Doppler factor
Unknown
Orbital elements
Apogee altitude
906.377 km
Perigee altitude
554.581 km
Semi-major axis
7,108.616 km
Eccentricity
0.02474
Inclination
99.0864°
RAAN
28.29°
Arg. of periapsis
97.1346°
True anomaly
262.98442°
Mean anomaly
265.8048°
Eccentric anomaly
264.39383°
Mean motion
3.62131 °/min
Orbital period
99.41 mins
BSTAR
0.0010566
Loading maneuver chart data...
Computing Atmospheric mass density...

Documentation

Showing up to 5 results
|